WXM80 ListenWXM80 Stop

You find our weather info also at:

UK Metoffice

WeatherCloud

Weather Underground

Northeastern Weather Network

AWEKAS

Citizen Weather Observer Program (CWOP)

HAMweather, WeatherForYou, PWS Weather


Weather Underground History page Text

Daily Summary for February 10, 2016 Units:  English    Metric   Both
« Previous Day
Next Day »
Daily Weekly Monthly Yearly Custom
  High: Low: Average:
Temperature: 40.7 °F 25.9 °F 33.6 °F
Dew Point: 32.8 °F 23.3 °F 27.5 °F
Humidity: 96 % 59 % 79 %
Wind Speed: 8.8 mph 0.0 mph 2.7 mph
Wind Gust: 15.0 mph - -
Wind:- - WSW
Pressure: 29.71 in 29.56 in -
Precipitation: 0.00 in    
Historical Graphs
 
 
Tabular Data for February 10, 2016
Time Temperature Dew Point Pressure Wind Wind Speed Wind Gust Humidity Rainfall Rate (Hourly)
00:01 26.3 °F 24.0 °F 29.58 in Calm     91 % 0.00 in
00:06 26.3 °F 24.0 °F 29.58 in Calm     91 % 0.00 in
00:12 26.2 °F 23.9 °F 29.58 in Calm     91 % 0.00 in
00:17 26.2 °F 23.9 °F 29.58 in Calm     91 % 0.00 in
00:22 26.1 °F 24.1 °F 29.58 in Calm     92 % 0.00 in
00:27 26.1 °F 24.1 °F 29.58 in Calm     92 % 0.00 in
00:32 26.0 °F 24.0 °F 29.58 in Calm     92 % 0.00 in
00:37 26.0 °F 24.0 °F 29.58 in Calm     92 % 0.00 in
00:42 26.0 °F 24.0 °F 29.58 in Calm     92 % 0.00 in
00:47 25.9 °F 23.9 °F 29.58 in SSE 0.4 mph 1.2 mph 92 % 0.00 in
00:57 26.0 °F 24.0 °F 29.58 in Calm     92 % 0.00 in
01:03 26.0 °F 24.3 °F 29.58 in SSE 0.1 mph 1.2 mph 93 % 0.00 in
01:08 26.1 °F 24.4 °F 29.59 in South 2.0 mph 3.5 mph 93 % 0.00 in
01:13 26.1 °F 24.4 °F 29.58 in South 0.2 mph 1.2 mph 93 % 0.00 in
01:23 26.2 °F 24.5 °F 29.58 in Calm     93 % 0.00 in
01:28 26.3 °F 24.6 °F 29.58 in Calm     93 % 0.00 in
01:33 26.4 °F 24.7 °F 29.59 in Calm     93 % 0.00 in
01:43 26.6 °F 25.1 °F 29.58 in Calm     94 % 0.00 in
01:48 26.7 °F 25.2 °F 29.58 in Calm     94 % 0.00 in
01:54 26.8 °F 25.3 °F 29.58 in Calm     94 % 0.00 in
01:59 26.9 °F 25.4 °F 29.58 in Calm     94 % 0.00 in
02:04 27.1 °F 25.6 °F 29.58 in Calm     94 % 0.00 in
02:09 27.2 °F 25.7 °F 29.58 in Calm     94 % 0.00 in
02:14 27.4 °F 25.9 °F 29.57 in Calm     94 % 0.00 in
02:19 27.5 °F 26.0 °F 29.57 in Calm     94 % 0.00 in
02:24 27.6 °F 26.1 °F 29.57 in Calm     94 % 0.00 in
02:29 27.6 °F 26.1 °F 29.57 in Calm     94 % 0.00 in
02:34 27.7 °F 26.2 °F 29.57 in Calm     94 % 0.00 in
02:39 27.7 °F 26.2 °F 29.57 in Calm     94 % 0.00 in
02:45 27.8 °F 26.3 °F 29.57 in Calm     94 % 0.00 in
02:50 27.9 °F 26.4 °F 29.57 in Calm     94 % 0.00 in
02:55 27.9 °F 26.4 °F 29.57 in Calm     94 % 0.00 in
03:00 28.0 °F 26.5 °F 29.57 in Calm     94 % 0.00 in
03:05 28.0 °F 26.5 °F 29.57 in Calm     94 % 0.00 in
03:10 28.1 °F 26.6 °F 29.57 in Calm     94 % 0.00 in
03:20 28.2 °F 26.7 °F 29.57 in Calm     94 % 0.00 in
03:25 28.3 °F 26.8 °F 29.57 in Calm   1.2 mph 94 % 0.00 in
03:30 28.3 °F 26.8 °F 29.57 in Calm     94 % 0.00 in
03:36 28.4 °F 26.9 °F 29.57 in Calm     94 % 0.00 in
03:41 28.5 °F 27.0 °F 29.57 in Calm     94 % 0.00 in
03:46 28.5 °F 27.0 °F 29.57 in South 0.4 mph 1.2 mph 94 % 0.00 in
03:51 28.6 °F 27.1 °F 29.57 in South 0.5 mph 1.2 mph 94 % 0.00 in
03:56 28.7 °F 27.2 °F 29.57 in Calm   1.2 mph 94 % 0.00 in
04:01 28.8 °F 27.3 °F 29.57 in Calm   1.2 mph 94 % 0.00 in
04:06 28.8 °F 27.3 °F 29.57 in Calm     94 % 0.00 in
04:11 28.9 °F 27.4 °F 29.57 in Calm     94 % 0.00 in
04:16 28.9 °F 27.4 °F 29.57 in Calm     94 % 0.00 in
04:21 29.0 °F 27.5 °F 29.57 in Calm     94 % 0.00 in
04:27 29.0 °F 27.7 °F 29.58 in Calm     95 % 0.00 in
04:32 29.1 °F 27.8 °F 29.57 in Calm     95 % 0.00 in
04:37 29.2 °F 27.9 °F 29.57 in Calm     95 % 0.00 in
04:47 29.3 °F 28.0 °F 29.57 in Calm   2.3 mph 95 % 0.00 in
04:52 29.3 °F 28.0 °F 29.57 in South 0.4 mph 1.2 mph 95 % 0.00 in
04:57 29.4 °F 28.1 °F 29.58 in South 0.3 mph 2.3 mph 95 % 0.00 in
05:02 29.4 °F 28.1 °F 29.57 in South 0.1 mph 1.2 mph 95 % 0.00 in
05:07 29.4 °F 28.1 °F 29.58 in Calm     95 % 0.00 in
05:18 29.6 °F 28.3 °F 29.58 in Calm     95 % 0.00 in
05:23 29.6 °F 28.3 °F 29.58 in Calm     95 % 0.00 in
05:28 29.7 °F 28.4 °F 29.58 in Calm     95 % 0.00 in
05:33 29.8 °F 28.5 °F 29.57 in Calm     95 % 0.00 in
05:43 29.8 °F 28.5 °F 29.57 in Calm     95 % 0.00 in
05:48 29.9 °F 28.6 °F 29.57 in Calm     95 % 0.00 in
06:04 30.0 °F 28.7 °F 29.58 in Calm     95 % 0.00 in
06:09 30.1 °F 28.8 °F 29.57 in Calm     95 % 0.00 in
06:14 30.1 °F 28.8 °F 29.57 in Calm     95 % 0.00 in
06:19 30.2 °F 28.9 °F 29.57 in South 0.6 mph 2.0 mph 95 % 0.00 in
06:24 30.2 °F 28.9 °F 29.57 in South 0.8 mph 3.0 mph 95 % 0.00 in
06:29 30.2 °F 28.9 °F 29.57 in South 0.1 mph 1.2 mph 95 % 0.00 in
06:34 30.3 °F 29.0 °F 29.57 in South 1.4 mph 2.3 mph 95 % 0.00 in
06:39 30.4 °F 29.1 °F 29.57 in Calm   2.3 mph 95 % 0.00 in
06:44 30.4 °F 29.1 °F 29.57 in Calm   1.2 mph 95 % 0.00 in
06:49 30.5 °F 29.2 °F 29.58 in Calm   1.2 mph 95 % 0.00 in
06:55 30.5 °F 29.2 °F 29.57 in South 0.1 mph 1.2 mph 95 % 0.00 in
07:00 30.6 °F 29.3 °F 29.58 in Calm   1.2 mph 95 % 0.00 in
07:05 30.7 °F 29.4 °F 29.58 in Calm     95 % 0.00 in
07:10 30.8 °F 29.5 °F 29.58 in Calm   1.0 mph 95 % 0.00 in
07:15 30.9 °F 29.6 °F 29.58 in South 0.6 mph 2.3 mph 95 % 0.00 in
07:20 31.0 °F 29.7 °F 29.58 in South 0.1 mph 1.2 mph 95 % 0.00 in
07:25 31.1 °F 29.8 °F 29.58 in South 0.4 mph 2.3 mph 95 % 0.00 in
07:30 31.2 °F 29.9 °F 29.58 in South 0.4 mph 2.3 mph 95 % 0.00 in
07:35 31.2 °F 29.9 °F 29.58 in South 0.9 mph 2.3 mph 95 % 0.00 in
07:40 31.4 °F 30.4 °F 29.58 in SSW 0.3 mph 2.3 mph 96 % 0.00 in
07:46 31.5 °F 30.5 °F 29.58 in SW 0.7 mph 3.5 mph 96 % 0.00 in
07:51 31.6 °F 30.6 °F 29.58 in SW 2.5 mph 3.5 mph 96 % 0.00 in
07:56 31.8 °F 30.8 °F 29.58 in SW 1.6 mph 3.5 mph 96 % 0.00 in
08:01 31.9 °F 30.9 °F 29.58 in SW 1.1 mph 3.5 mph 96 % 0.00 in
08:11 32.2 °F 31.2 °F 29.58 in SW 2.3 mph 5.0 mph 96 % 0.00 in
08:16 32.3 °F 31.3 °F 29.58 in WSW 0.1 mph 3.5 mph 96 % 0.00 in
08:21 32.4 °F 31.4 °F 29.58 in WSW 1.3 mph 2.3 mph 96 % 0.00 in
08:26 32.6 °F 31.3 °F 29.58 in WSW 1.0 mph 1.2 mph 95 % 0.00 in
08:31 32.8 °F 31.8 °F 29.58 in WSW 0.5 mph 2.3 mph 96 % 0.00 in
08:37 32.9 °F 31.6 °F 29.59 in WSW 1.2 mph 1.2 mph 95 % 0.00 in
08:42 33.0 °F 32.0 °F 29.59 in WSW 0.4 mph 3.5 mph 96 % 0.00 in
08:52 33.2 °F 31.9 °F 29.59 in SSW 1.6 mph 3.5 mph 95 % 0.00 in
08:57 33.3 °F 32.0 °F 29.59 in SW 1.0 mph 2.3 mph 95 % 0.00 in
09:02 33.4 °F 32.1 °F 29.59 in WSW 2.4 mph 3.5 mph 95 % 0.00 in
09:07 33.4 °F 32.1 °F 29.59 in Calm   1.2 mph 95 % 0.00 in
09:12 33.5 °F 32.2 °F 29.59 in SW 2.0 mph 4.6 mph 95 % 0.00 in
09:22 33.6 °F 32.1 °F 29.59 in West 1.1 mph 2.3 mph 94 % 0.00 in
09:28 33.7 °F 32.2 °F 29.59 in SW 2.5 mph 6.0 mph 94 % 0.00 in
09:33 33.8 °F 32.3 °F 29.59 in SW 1.7 mph 3.5 mph 94 % 0.00 in
09:38 33.9 °F 32.1 °F 29.59 in WSW 3.6 mph 4.6 mph 93 % 0.00 in
09:43 34.0 °F 32.2 °F 29.59 in WSW 2.7 mph 4.0 mph 93 % 0.00 in
09:48 34.1 °F 32.3 °F 29.59 in WSW 2.3 mph 4.0 mph 93 % 0.00 in
09:53 34.2 °F 32.4 °F 29.59 in WSW 2.4 mph 5.0 mph 93 % 0.00 in
09:58 34.2 °F 32.4 °F 29.59 in WSW 1.4 mph 3.5 mph 93 % 0.00 in
10:03 34.4 °F 32.6 °F 29.59 in WSW 3.6 mph 5.8 mph 93 % 0.00 in
10:08 34.4 °F 32.3 °F 29.59 in WSW 2.8 mph 6.9 mph 92 % 0.00 in
10:13 34.6 °F 32.5 °F 29.59 in WSW 1.0 mph 4.6 mph 92 % 0.00 in
10:19 34.6 °F 32.5 °F 29.59 in WSW 2.9 mph 8.0 mph 92 % 0.00 in
10:24 34.8 °F 32.7 °F 29.59 in West 1.3 mph 3.5 mph 92 % 0.00 in
10:29 34.9 °F 32.8 °F 29.59 in WSW 2.2 mph 6.9 mph 92 % 0.00 in
10:34 35.0 °F 32.6 °F 29.59 in NW 1.6 mph 4.0 mph 91 % 0.00 in
10:39 35.2 °F 32.8 °F 29.59 in WSW 4.6 mph 8.0 mph 91 % 0.00 in
10:49 35.6 °F 32.7 °F 29.59 in WSW 3.7 mph 6.9 mph 89 % 0.00 in
10:54 35.8 °F 32.3 °F 29.58 in WNW 5.2 mph 10.4 mph 87 % 0.00 in
11:10 36.2 °F 32.1 °F 29.59 in NW 3.1 mph 8.1 mph 85 % 0.00 in
11:15 36.4 °F 32.3 °F 29.59 in West 1.7 mph 6.0 mph 85 % 0.00 in
11:20 36.6 °F 32.2 °F 29.58 in NW 2.0 mph 6.9 mph 84 % 0.00 in
11:30 36.8 °F 32.1 °F 29.58 in NW 5.1 mph 10.4 mph 83 % 0.00 in
11:35 37.0 °F 32.3 °F 29.58 in WSW 5.9 mph 8.1 mph 83 % 0.00 in
11:40 37.1 °F 32.1 °F 29.58 in West 3.4 mph 6.9 mph 82 % 0.00 in
11:45 37.2 °F 31.9 °F 29.58 in West 4.1 mph 8.1 mph 81 % 0.00 in
11:50 37.4 °F 32.1 °F 29.58 in WSW 4.2 mph 6.9 mph 81 % 0.00 in
11:55 37.5 °F 31.6 °F 29.58 in WSW 4.8 mph 9.2 mph 79 % 0.00 in
12:01 37.6 °F 31.7 °F 29.58 in WNW 3.0 mph 9.2 mph 79 % 0.00 in
12:06 37.9 °F 31.7 °F 29.57 in WSW 3.7 mph 6.9 mph 78 % 0.00 in
12:11 38.0 °F 31.4 °F 29.57 in WSW 5.9 mph 10.4 mph 77 % 0.00 in
12:16 38.2 °F 31.3 °F 29.57 in WSW 2.8 mph 4.6 mph 76 % 0.00 in
12:21 38.3 °F 31.1 °F 29.57 in WSW 4.9 mph 8.1 mph 75 % 0.00 in
12:26 38.4 °F 30.8 °F 29.57 in NW 4.4 mph 8.1 mph 74 % 0.00 in
12:31 38.5 °F 31.3 °F 29.57 in WNW 2.4 mph 5.0 mph 75 % 0.00 in
12:36 38.5 °F 30.9 °F 29.57 in WSW 2.7 mph 7.0 mph 74 % 0.00 in
12:41 38.5 °F 30.9 °F 29.57 in WSW 3.6 mph 5.8 mph 74 % 0.00 in
12:46 38.6 °F 31.0 °F 29.57 in WSW 2.7 mph 5.8 mph 74 % 0.00 in
12:52 38.7 °F 31.1 °F 29.57 in WSW 5.8 mph 8.1 mph 74 % 0.00 in
12:57 38.7 °F 31.1 °F 29.56 in SSW 2.5 mph 4.6 mph 74 % 0.00 in
13:02 38.8 °F 31.2 °F 29.57 in West 3.1 mph 4.0 mph 74 % 0.00 in
13:07 38.9 °F 31.3 °F 29.56 in WNW 2.9 mph 4.6 mph 74 % 0.00 in
13:12 39.0 °F 31.1 °F 29.57 in SW 7.3 mph 9.2 mph 73 % 0.00 in
13:17 39.1 °F 31.2 °F 29.56 in WSW 5.3 mph 8.0 mph 73 % 0.00 in
13:22 39.2 °F 30.6 °F 29.56 in WSW 7.0 mph 9.2 mph 71 % 0.00 in
13:27 39.2 °F 29.9 °F 29.56 in WSW 4.7 mph 6.9 mph 69 % 0.00 in
13:32 39.3 °F 29.6 °F 29.56 in WNW 3.7 mph 6.9 mph 68 % 0.00 in
13:37 39.5 °F 29.4 °F 29.56 in WSW 3.0 mph 8.1 mph 67 % 0.00 in
13:43 39.7 °F 30.0 °F 29.57 in WNW 3.9 mph 8.1 mph 68 % 0.00 in
13:48 39.9 °F 29.8 °F 29.57 in West 4.7 mph 6.9 mph 67 % 0.00 in
13:53 40.3 °F 29.8 °F 29.56 in WNW 2.4 mph 4.6 mph 66 % 0.00 in
13:58 40.6 °F 29.7 °F 29.56 in West 2.1 mph 9.2 mph 65 % 0.00 in
14:03 40.7 °F 29.5 °F 29.57 in West 3.1 mph 4.0 mph 64 % 0.00 in
14:08 40.7 °F 29.5 °F 29.57 in WSW 2.8 mph 4.6 mph 64 % 0.00 in
14:13 40.6 °F 29.4 °F 29.57 in NW 1.7 mph 5.0 mph 64 % 0.00 in
14:18 40.4 °F 29.6 °F 29.57 in West 2.4 mph 5.0 mph 65 % 0.00 in
14:23 40.0 °F 28.8 °F 29.57 in SW 2.6 mph 6.9 mph 64 % 0.00 in
14:28 39.7 °F 28.5 °F 29.57 in West 4.0 mph 9.2 mph 64 % 0.00 in
14:34 39.4 °F 28.6 °F 29.57 in WNW 4.0 mph 8.0 mph 65 % 0.00 in
14:39 39.2 °F 28.8 °F 29.57 in SW 1.1 mph 4.6 mph 66 % 0.00 in
14:44 39.1 °F 28.7 °F 29.57 in WSW 2.0 mph 6.9 mph 66 % 0.00 in
14:49 39.1 °F 28.7 °F 29.58 in West 3.0 mph 6.9 mph 66 % 0.00 in
14:54 39.1 °F 28.7 °F 29.58 in WSW 3.2 mph 5.8 mph 66 % 0.00 in
14:59 39.0 °F 27.8 °F 29.58 in West 4.8 mph 12.7 mph 64 % 0.00 in
15:04 39.0 °F 27.8 °F 29.58 in SSW 4.9 mph 8.1 mph 64 % 0.00 in
15:09 38.9 °F 27.4 °F 29.58 in West 4.4 mph 11.5 mph 63 % 0.00 in
15:14 38.8 °F 27.3 °F 29.58 in WNW 4.6 mph 9.2 mph 63 % 0.00 in
15:19 38.7 °F 26.8 °F 29.59 in WSW 5.3 mph 9.2 mph 62 % 0.00 in
15:25 38.6 °F 26.7 °F 29.60 in WSW 6.6 mph 8.0 mph 62 % 0.00 in
15:30 38.5 °F 27.0 °F 29.59 in SW 4.7 mph 9.2 mph 63 % 0.00 in
15:35 38.5 °F 27.4 °F 29.59 in West 4.6 mph 8.1 mph 64 % 0.00 in
15:40 38.5 °F 26.6 °F 29.60 in NW 4.2 mph 5.8 mph 62 % 0.00 in
15:45 38.4 °F 26.1 °F 29.60 in NW 6.0 mph 11.5 mph 61 % 0.00 in
15:50 38.5 °F 26.6 °F 29.60 in WSW 7.6 mph 11.5 mph 62 % 0.00 in
15:55 38.5 °F 27.0 °F 29.60 in WNW 3.8 mph 6.0 mph 63 % 0.00 in
16:00 38.4 °F 26.5 °F 29.60 in WSW 2.8 mph 10.4 mph 62 % 0.00 in
16:05 38.4 °F 26.5 °F 29.61 in WNW 4.2 mph 6.9 mph 62 % 0.00 in
16:10 38.4 °F 26.9 °F 29.61 in WNW 3.9 mph 8.1 mph 63 % 0.00 in
16:16 38.3 °F 26.0 °F 29.61 in NNW 4.3 mph 11.5 mph 61 % 0.00 in
16:21 38.2 °F 25.5 °F 29.61 in West 3.7 mph 11.5 mph 60 % 0.00 in
16:31 38.1 °F 26.2 °F 29.61 in WSW 4.4 mph 9.0 mph 62 % 0.00 in
16:36 38.0 °F 25.7 °F 29.62 in WSW 5.8 mph 9.2 mph 61 % 0.00 in
16:41 38.0 °F 25.7 °F 29.62 in SW 1.5 mph 5.0 mph 61 % 0.00 in
16:46 37.9 °F 25.6 °F 29.62 in West 6.1 mph 7.0 mph 61 % 0.00 in
16:51 37.8 °F 25.1 °F 29.62 in West 3.3 mph 8.1 mph 60 % 0.00 in
16:56 37.7 °F 25.5 °F 29.62 in WSW 3.4 mph 4.6 mph 61 % 0.00 in
17:01 37.7 °F 25.1 °F 29.63 in SW 4.4 mph 6.0 mph 60 % 0.00 in
17:07 37.5 °F 24.5 °F 29.63 in WSW 5.5 mph 8.1 mph 59 % 0.00 in
17:12 37.5 °F 24.9 °F 29.63 in WSW 3.4 mph 7.0 mph 60 % 0.00 in
17:17 37.4 °F 24.8 °F 29.63 in SW 2.9 mph 4.6 mph 60 % 0.00 in
17:22 37.3 °F 25.1 °F 29.64 in WNW 1.9 mph 3.5 mph 61 % 0.00 in
17:27 37.3 °F 25.5 °F 29.64 in West 2.1 mph 3.5 mph 62 % 0.00 in
17:32 37.2 °F 25.4 °F 29.64 in SW 4.3 mph 6.9 mph 62 % 0.00 in
17:37 37.1 °F 25.3 °F 29.65 in WNW 4.1 mph 6.9 mph 62 % 0.00 in
17:42 37.1 °F 25.7 °F 29.65 in WNW 3.9 mph 6.9 mph 63 % 0.00 in
17:47 37.1 °F 25.7 °F 29.65 in NNW 3.9 mph 4.6 mph 63 % 0.00 in
17:52 37.1 °F 26.0 °F 29.65 in WNW 2.9 mph 9.2 mph 64 % 0.00 in
17:58 37.1 °F 26.0 °F 29.66 in NW 3.1 mph 7.0 mph 64 % 0.00 in
18:03 37.1 °F 25.7 °F 29.66 in WNW 3.3 mph 5.8 mph 63 % 0.00 in
18:08 37.1 °F 26.0 °F 29.66 in WNW 1.7 mph 5.8 mph 64 % 0.00 in
18:13 37.1 °F 26.0 °F 29.66 in West 2.2 mph 8.1 mph 64 % 0.00 in
18:18 37.1 °F 26.0 °F 29.66 in WNW 5.7 mph 9.2 mph 64 % 0.00 in
18:23 37.0 °F 25.6 °F 29.66 in WNW 5.0 mph 8.1 mph 63 % 0.00 in
18:28 37.0 °F 25.9 °F 29.66 in WSW 4.0 mph 5.0 mph 64 % 0.00 in
18:33 36.8 °F 25.8 °F 29.66 in WNW 3.5 mph 6.9 mph 64 % 0.00 in
18:38 36.7 °F 26.0 °F 29.67 in WNW 3.9 mph 7.0 mph 65 % 0.00 in
18:43 36.6 °F 25.6 °F 29.67 in WSW 4.0 mph 8.1 mph 64 % 0.00 in
18:49 36.6 °F 25.6 °F 29.67 in WSW 3.0 mph 6.9 mph 64 % 0.00 in
18:54 36.5 °F 25.8 °F 29.67 in WSW 3.1 mph 6.9 mph 65 % 0.00 in
18:59 36.5 °F 26.2 °F 29.67 in West 2.4 mph 3.5 mph 66 % 0.00 in
19:09 36.3 °F 26.7 °F 29.67 in SSW 2.5 mph 6.9 mph 68 % 0.00 in
19:14 36.2 °F 26.6 °F 29.67 in WSW 4.2 mph 6.0 mph 68 % 0.00 in
19:19 36.0 °F 26.5 °F 29.67 in West 2.9 mph 9.2 mph 68 % 0.00 in
19:24 36.0 °F 26.8 °F 29.67 in SW 2.3 mph 6.9 mph 69 % 0.00 in
19:35 35.8 °F 25.5 °F 29.67 in WSW 5.1 mph 8.1 mph 66 % 0.00 in
19:40 35.6 °F 25.4 °F 29.67 in West 7.8 mph 14.0 mph 66 % 0.00 in
19:45 35.4 °F 25.2 °F 29.67 in West 5.1 mph 6.9 mph 66 % 0.00 in
19:50 35.3 °F 25.1 °F 29.67 in WSW 4.8 mph 9.2 mph 66 % 0.00 in
19:55 35.1 °F 24.9 °F 29.67 in WSW 4.7 mph 11.5 mph 66 % 0.00 in
20:00 35.0 °F 24.8 °F 29.67 in SW 5.8 mph 10.4 mph 66 % 0.00 in
20:05 34.8 °F 24.6 °F 29.67 in SW 5.9 mph 11.5 mph 66 % 0.00 in
20:10 34.7 °F 24.5 °F 29.68 in SW 2.4 mph 3.5 mph 66 % 0.00 in
20:15 34.6 °F 24.4 °F 29.68 in West 7.8 mph 10.4 mph 66 % 0.00 in
20:20 34.5 °F 24.3 °F 29.68 in WSW 6.9 mph 11.5 mph 66 % 0.00 in
20:26 34.4 °F 24.2 °F 29.68 in WSW 5.6 mph 10.0 mph 66 % 0.00 in
20:31 34.4 °F 24.2 °F 29.68 in SSW 4.7 mph 10.4 mph 66 % 0.00 in
20:36 34.2 °F 24.0 °F 29.68 in WSW 6.7 mph 11.5 mph 66 % 0.00 in
20:41 34.2 °F 24.0 °F 29.68 in West 4.7 mph 8.1 mph 66 % 0.00 in
20:46 34.1 °F 23.9 °F 29.68 in WNW 4.5 mph 10.4 mph 66 % 0.00 in
20:51 34.0 °F 23.8 °F 29.68 in SW 4.4 mph 8.1 mph 66 % 0.00 in
20:56 33.9 °F 24.1 °F 29.68 in WNW 2.9 mph 5.8 mph 67 % 0.00 in
21:01 33.8 °F 24.0 °F 29.69 in WSW 3.5 mph 10.0 mph 67 % 0.00 in
21:06 33.7 °F 23.9 °F 29.68 in West 6.1 mph 8.1 mph 67 % 0.00 in
21:11 33.6 °F 23.4 °F 29.69 in SW 4.1 mph 12.7 mph 66 % 0.00 in
21:17 33.6 °F 23.8 °F 29.69 in WSW 7.4 mph 9.2 mph 67 % 0.00 in
21:22 33.5 °F 23.7 °F 29.69 in West 3.9 mph 11.0 mph 67 % 0.00 in
21:27 33.4 °F 23.6 °F 29.69 in SW 6.2 mph 11.5 mph 67 % 0.00 in
21:32 33.4 °F 24.0 °F 29.69 in West 4.6 mph 13.8 mph 68 % 0.00 in
21:37 33.3 °F 23.5 °F 29.69 in WSW 8.1 mph 11.5 mph 67 % 0.00 in
21:42 33.2 °F 23.8 °F 29.69 in WSW 5.0 mph 9.2 mph 68 % 0.00 in
21:47 33.2 °F 23.8 °F 29.69 in WSW 6.2 mph 10.4 mph 68 % 0.00 in
21:52 33.1 °F 23.7 °F 29.69 in WSW 5.2 mph 10.4 mph 68 % 0.00 in
22:02 33.0 °F 23.9 °F 29.69 in SW 5.5 mph 9.2 mph 69 % 0.00 in
22:08 33.0 °F 23.9 °F 29.69 in WSW 3.0 mph 11.5 mph 69 % 0.00 in
22:13 33.0 °F 23.9 °F 29.70 in WSW 3.0 mph 5.8 mph 69 % 0.00 in
22:23 32.9 °F 23.8 °F 29.70 in SW 7.3 mph 15.0 mph 69 % 0.00 in
22:28 32.9 °F 23.8 °F 29.70 in NW 5.8 mph 9.0 mph 69 % 0.00 in
22:33 32.8 °F 23.7 °F 29.70 in WNW 4.1 mph 8.1 mph 69 % 0.00 in
22:38 32.8 °F 23.7 °F 29.70 in SSW 0.8 mph 6.9 mph 69 % 0.00 in
22:43 32.7 °F 24.0 °F 29.70 in WSW 3.6 mph 8.1 mph 70 % 0.00 in
22:53 32.6 °F 23.6 °F 29.71 in West 8.8 mph 9.2 mph 69 % 0.00 in
22:59 32.6 °F 23.6 °F 29.71 in WSW 4.9 mph 11.5 mph 69 % 0.00 in
23:04 32.6 °F 23.9 °F 29.70 in West 4.1 mph 13.8 mph 70 % 0.00 in
23:09 32.5 °F 23.8 °F 29.71 in SW 5.8 mph 11.5 mph 70 % 0.00 in
23:14 32.4 °F 23.7 °F 29.71 in WSW 8.1 mph 11.5 mph 70 % 0.00 in
23:19 32.4 °F 23.7 °F 29.71 in WSW 7.1 mph 12.7 mph 70 % 0.00 in
23:24 32.3 °F 23.6 °F 29.70 in WSW 6.5 mph 10.4 mph 70 % 0.00 in
23:29 32.3 °F 23.6 °F 29.70 in WSW 3.1 mph 6.9 mph 70 % 0.00 in
23:34 32.2 °F 23.5 °F 29.70 in SW 5.9 mph 10.4 mph 70 % 0.00 in
23:39 32.2 °F 23.5 °F 29.70 in WSW 3.5 mph 6.9 mph 70 % 0.00 in
23:44 32.3 °F 23.6 °F 29.70 in WNW 5.4 mph 10.4 mph 70 % 0.00 in
23:49 32.3 °F 23.3 °F 29.70 in WSW 3.1 mph 10.4 mph 69 % 0.00 in
23:55 32.3 °F 23.6 °F 29.70 in NW 4.2 mph 8.1 mph 70 % 0.00 in
Crab Meadow Weather
Compliments of Weather Underground - 2.75 mb

Script developed by  Jim McMurry - jmcmurry@mwt.net Adapted for the template by  Wim van der Kuil - Leuven-Template.eu

Lightning: The chances of being hit by lightning is 1:28,500.